Back to catalog

STARLINK-3521

AliveCommunicationsVLEO
NORAD 51742·PAYLOAD·🇺🇸 United States

Launched Feb 21, 2022 from Cape Canaveral Space Force Station

Loading…

Next Passes (next 24 hours)

TLE

FreshSource: CelesTrak SupGP

Epoch: Sep 14, 2026, 20:26 UTC

1 51742C 22016AE  26257.85187500 -.00009094  00000+0 -26869-3 0  2570
2 51742  53.1571 175.9127 0001241  95.6573 176.9556 15.34394757    16

Track STARLINK-3521 in real time with AllMySat

Download on the App Store